Wind_Speed
2 1 1 2 3 4 4 4 5 5 5 6 5 5 6 6 6 7 8 8 9 9 10 11 11 12 12 11 10 10 10 10 10 10 10 10 9 9 9 9 10 11 11
3 3 2 3 3 4 4 4 5 4 5 5 6 6 6 6 5 6 7 8 9 10 11 11 11 11 12 11 10 11 10 11 10 11 11 10 10 10 10 10 11 11 11
4 5 5 4 4 4 5 5 5 5 5 5 6 6 6 6 6 6 7 8 9 10 10 10 10 11 11 11 11 11 11 11 11 11 11 11 11 11 11 12 12 12 12
6 6 5 5 5 5 5 5 5 6 6 6 6 6 6 6 6 7 7 8 9 9 9 10 10 11 11 11 11 11 11 12 11 11 12 12 12 12 12 13 13 14 14
7 7 6 5 5 5 5 5 6 6 7 7 6 6 6 6 7 7 8 8 9 10 10 11 11 11 11 12 11 11 12 12 12 12 13 13 13 13 13 14 15 15 16
7 7 6 6 6 5 5 6 6 7 7 7 7 7 7 8 8 8 8 9 10 10 10 11 11 12 12 12 12 12 12 13 13 13 13 14 13 13 14 14 15 15 15
6 6 6 6 6 6 6 6 6 6 7 7 7 7 8 8 8 9 9 9 9 10 10 11 12 12 12 12 13 13 13 13 13 14 15 15 14 15 16 16 16 16 16
7 6 6 6 7 6 6 7 7 7 8 8 8 8 8 9 9 9 10 10 10 10 10 11 12 13 14 13 13 14 15 15 14 15 16 16 16 16 16 17 17 17 16
8 8 8 8 7 7 7 8 9 9 9 9 9 9 9 9 10 10 10 10 10 10 11 11 12 13 13 14 14 14 15 16 16 16 17 17 17 16 16 17 17 17 17
10 9 9 9 9 9 8 9 9 9 10 10 10 10 11 11 11 11 11 11 11 11 11 11 12 12 13 14 15 16 16 16 17 17 17 18 18 18 17 17 17 17 18
12 11 11 11 11 10 10 10 10 11 11 11 11 12 12 12 12 11 12 12 12 12 12 13 13 13 14 14 15 16 17 17 18 18 18 19 19 19 19 18 18 18 18
14 13 12 12 12 12 12 12 12 12 12 12 13 13 13 13 13 13 12 12 12 12 13 13 14 15 15 15 16 16 17 18 19 20 20 20 20 20 20 20 19 19 19
15 15 14 14 15 13 13 14 13 14 14 14 14 14 14 14 14 13 13 13 13 13 14 14 15 15 16 16 16 17 17 18 19 20 21 22 22 21 20 20 20 19 19
17 16 16 15 15 15 15 15 15 15 15 15 15 15 15 15 15 15 14 14 14 14 15 16 16 16 16 17 18 18 18 18 19 19 19 21 22 22 21 20 20 20 20
18 18 18 17 16 16 16 17 17 16 15 15 15 16 17 17 16 16 16 16 15 15 16 17 17 18 18 18 19 19 19 18 18 18 18 19 21 21 22 21 21 21 21
20 20 19 18 18 17 18 17 17 17 17 17 17 17 17 18 18 18 18 18 17 17 18 18 18 18 18 18 19 19 19 19 18 18 19 20 20 21 21 22 22 22 22
22 22 21 20 20 19 19 19 19 19 19 18 18 18 18 18 19 20 20 19 19 19 19 19 20 20 20 20 20 20 20 20 19 19 19 20 21 21 22 22 23 24 24
24 24 23 22 21 21 21 20 20 20 20 20 20 20 19 20 20 20 21 21 21 21 21 21 22 22 21 21 21 22 21 21 21 20 20 21 21 22 22 23 25 26 26
26 26 25 24 23 23 23 22 21 21 21 21 22 21 21 21 22 22 23 23 23 23 23 23 23 23 22 22 23 23 23 23 23 23 23 23 23 23 24 24 24 25 26
25 26 26 25 25 24 24 23 23 22 23 23 23 23 22 23 23 24 24 25 25 24 24 24 24 24 23 24 24 24 24 24 25 25 25 25 25 25 25 25 25 25 25
25 25 26 26 26 25 24 24 24 24 23 24 24 24 24 24 24 25 25 26 26 26 26 25 25 25 25 25 25 25 25 25 25 26 26 27 27 27 26 26 26 26 26
27 27 26 27 26 26 26 26 26 26 25 25 25 25 25 25 26 26 25 25 26 26 26 26 25 26 26 26 26 26 26 26 26 26 27 27 27 28 28 27 27 27 27
26 26 27 26 26 26 28 27 27 27 27 26 26 26 26 26 26 26 26 25 26 26 26 26 25 25 26 26 26 26 26 26 26 27 27 27 27 27 27 27 27 27 26
25 25 26 26 26 26 27 27 27 27 27 27 27 26 26 26 26 26 26 26 25 26 26 26 26 26 27 27 26 26 26 27 27 27 27 27 27 27 27 27 27 27 27
25 25 26 26 26 26 27 28 28 28 27 27 27 26 27 27 26 26 26 26 26 26 26 26 27 27 27 27 27 27 27 28 28 27 28 28 28 28 28 28 28 27 27
25 25 25 26 26 27 27 28 28 28 27 27 27 27 27 27 27 27 26 26 26 26 26 26 26 27 27 27 28 28 28 28 28 28 28 28 29 29 29 28 28 28 27
Wind_Direction
313 311 304 281 271 263 254 244 248 247 253 261 256 262 263 262 257 255 251 247 246 239 239 242 243 241 243 243 244 244 245 247 248 251 254 255 253 250 251 255 258 264 265
304 307 309 299 290 283 277 269 253 251 259 262 261 264 262 263 262 254 252 251 248 243 241 240 239 241 242 243 246 247 248 253 257 258 259 254 252 251 253 257 261 264 264
294 298 297 291 285 282 277 271 266 258 258 257 261 268 276 269 264 264 257 253 250 244 240 238 242 242 244 250 248 247 252 258 261 263 261 258 256 257 258 261 261 263 264
294 302 295 293 280 277 274 271 269 259 255 255 259 272 280 273 269 270 268 263 257 254 249 246 246 247 249 253 254 252 254 258 260 262 258 260 261 260 263 263 262 265 265
300 300 297 295 285 270 267 270 270 272 261 256 259 274 274 269 271 274 273 268 264 261 256 253 250 251 251 252 253 254 258 258 259 260 261 261 263 262 264 267 268 268 266
307 295 286 284 282 275 268 267 271 272 268 267 263 267 271 270 270 272 270 268 267 263 258 253 251 254 256 254 255 256 261 261 262 262 264 266 266 264 266 271 274 270 267
300 299 285 281 279 272 266 264 264 271 272 270 265 268 272 272 271 270 268 269 267 264 259 254 254 255 256 258 258 259 262 264 264 264 265 266 268 270 270 272 274 270 266
293 293 292 289 283 273 271 267 266 271 273 270 268 270 272 272 272 274 272 270 269 266 262 257 256 255 257 259 260 261 262 263 264 263 264 265 268 272 274 274 274 272 270
282 287 286 284 281 279 281 277 270 269 274 273 268 270 273 274 273 274 275 274 271 266 264 263 260 259 260 260 262 264 264 263 265 263 264 265 268 270 273 273 273 273 274
272 276 278 277 277 277 279 280 277 272 274 275 270 271 273 274 273 273 274 275 272 269 267 266 265 264 264 265 264 264 265 265 266 267 266 267 268 271 273 273 271 272 272
271 273 275 276 275 273 273 275 277 275 276 276 273 271 272 273 274 272 270 272 270 267 267 268 268 267 268 268 268 266 267 269 268 267 268 269 269 271 273 273 272 272 272
273 270 274 277 275 272 270 270 273 276 276 275 275 274 274 274 274 273 269 269 271 269 267 267 268 268 268 270 271 270 271 272 272 270 269 270 269 270 273 272 272 271 271
270 267 270 272 271 269 269 271 274 275 275 274 274 274 275 276 275 273 271 270 269 269 270 271 271 271 270 270 271 272 275 276 276 274 272 270 268 269 271 271 271 269 270
272 270 271 271 272 272 272 273 274 275 274 271 270 271 272 273 273 274 272 270 270 270 272 272 273 275 274 272 273 274 276 278 277 277 276 272 267 267 270 271 270 270 270
274 273 273 271 272 273 273 274 271 273 275 272 271 272 271 271 272 274 274 273 273 274 272 272 273 275 277 277 276 276 275 277 278 278 277 277 271 268 268 270 270 271 270
274 272 271 272 273 273 274 275 273 271 272 273 272 272 273 272 274 275 273 274 275 275 273 272 273 273 275 277 277 278 276 276 278 278 276 276 274 271 271 272 271 270 271
271 270 269 268 270 273 274 272 271 270 271 272 272 272 275 274 273 275 272 272 274 275 274 273 273 273 274 275 275 277 278 278 279 279 278 275 274 274 273 272 270 270 271
268 268 269 268 267 270 272 272 271 270 270 270 270 271 273 274 275 275 273 272 274 274 273 273 273 273 274 275 276 277 278 278 279 280 281 280 277 276 275 273 271 271 271
267 268 269 268 267 269 269 268 269 269 268 268 271 272 271 272 274 275 273 273 273 273 273 273 273 273 274 275 275 277 278 278 279 280 280 280 278 277 277 276 275 273 272
269 267 266 266 266 267 268 266 267 268 267 269 271 271 270 271 273 276 276 274 273 273 272 272 273 272 273 275 277 277 277 278 279 280 280 279 279 277 277 277 276 275 273
270 268 266 265 265 264 266 266 267 268 269 268 270 271 271 272 275 277 276 275 273 272 272 271 271 270 272 274 277 277 277 278 279 279 280 281 281 280 279 279 278 276 275
270 269 267 267 264 263 265 266 268 270 269 269 270 271 271 273 276 277 278 276 273 273 274 272 271 271 272 274 275 277 278 277 278 279 280 281 282 282 281 280 280 279 276
270 270 268 267 265 265 265 265 266 268 269 270 270 271 272 274 276 278 278 277 275 273 272 273 272 271 272 273 274 275 277 278 278 280 280 281 283 283 281 280 281 280 278
269 269 269 269 268 267 266 266 265 266 269 270 270 271 271 273 274 276 277 277 275 273 272 271 272 272 273 274 275 274 275 277 279 279 280 281 282 282 282 281 281 280 279
269 269 268 269 267 265 265 264 264 265 267 269 269 270 271 271 273 274 275 275 274 272 271 273 273 272 272 272 273 275 276 277 279 280 280 281 282 282 281 281 281 281 280
269 269 269 271 267 264 263 263 263 264 266 268 269 270 271 271 271 272 272 272 271 270 271 273 274 273 272 274 275 276 276 277 278 280 281 283 284 284 282 281 281 282 280
Height
5877 5876 5876 5875 5874 5873 5873 5873 5873 5873 5873 5873 5872 5872 5872 5871 5870 5870 5871 5871 5872 5872 5873 5873 5873 5874 5874 5875 5876 5876 5877 5877 5877 5878 5878 5878 5879 5879 5880 5880 5881 5881 5881
5877 5876 5876 5875 5874 5873 5872 5872 5872 5872 5872 5871 5871 5871 5871 5870 5870 5869 5869 5870 5870 5870 5871 5871 5871 5872 5873 5873 5874 5874 5875 5875 5876 5876 5876 5876 5877 5877 5878 5878 5878 5879 5879
5877 5876 5875 5874 5873 5873 5872 5871 5871 5871 5871 5870 5870 5870 5870 5869 5869 5869 5868 5868 5868 5868 5868 5869 5869 5870 5871 5871 5872 5872 5873 5873 5874 5874 5874 5874 5875 5875 5875 5875 5876 5876 5876
5876 5875 5874 5873 5873 5872 5871 5871 5870 5870 5869 5869 5869 5869 5868 5868 5868 5867 5867 5867 5866 5866 5867 5867 5868 5868 5869 5869 5870 5870 5871 5871 5872 5872 5872 5872 5872 5872 5872 5872 5872 5872 5872
5874 5873 5873 5872 5871 5871 5870 5870 5869 5869 5868 5868 5868 5867 5867 5866 5866 5866 5866 5865 5865 5865 5865 5865 5866 5866 5867 5867 5868 5868 5868 5869 5869 5869 5870 5870 5870 5870 5870 5869 5869 5869 5869
5873 5871 5871 5870 5870 5869 5869 5868 5868 5867 5867 5867 5866 5866 5865 5865 5865 5864 5864 5864 5863 5863 5863 5863 5864 5864 5864 5865 5865 5866 5866 5866 5866 5867 5867 5867 5867 5867 5867 5866 5865 5865 5865
5871 5870 5869 5869 5868 5868 5867 5867 5866 5866 5865 5865 5865 5864 5864 5863 5863 5863 5862 5862 5862 5861 5861 5861 5861 5861 5862 5862 5862 5863 5863 5863 5863 5864 5864 5864 5864 5864 5863 5862 5861 5860 5860
5869 5869 5868 5867 5867 5866 5866 5865 5864 5864 5864 5863 5863 5863 5862 5863 5861 5861 5860 5860 5860 5859 5858 5858 5859 5859 5859 5859 5859 5860 5860 5860 5860 5860 5861 5861 5860 5860 5859 5858 5856 5855 5855
5868 5867 5866 5865 5865 5864 5864 5863 5863 5862 5862 5861 5861 5861 5860 5860 5859 5859 5858 5858 5857 5857 5856 5856 5856 5856 5856 5856 5856 5856 5857 5857 5857 5857 5857 5857 5857 5856 5855 5853 5852 5851 5851
5865 5864 5864 5863 5863 5862 5861 5861 5860 5860 5859 5859 5859 5858 5858 5857 5857 5857 5857 5856 5855 5855 5854 5854 5853 5853 5853 5853 5853 5853 5853 5853 5853 5853 5853 5853 5853 5852 5851 5850 5848 5848 5848
5863 5862 5861 5861 5860 5859 5859 5858 5858 5857 5857 5856 5856 5856 5855 5855 5854 5854 5854 5854 5853 5852 5852 5851 5851 5851 5850 5850 5849 5849 5849 5849 5849 5849 5849 5848 5848 5848 5847 5846 5845 5845 5845
5860 5859 5858 5858 5857 5857 5856 5855 5855 5854 5854 5853 5853 5852 5852 5852 5852 5851 5851 5850 5850 5849 5849 5848 5848 5847 5847 5846 5846 5845 5845 5845 5844 5844 5844 5843 5843 5843 5843 5842 5842 5841 5841
5856 5855 5855 5854 5854 5854 5853 5852 5852 5851 5851 5850 5850 5849 5849 5848 5848 5848 5848 5847 5847 5846 5846 5845 5844 5843 5843 5842 5842 5841 5841 5840 5839 5839 5838 5837 5837 5838 5838 5838 5838 5838 5838
5852 5851 5851 5850 5850 5850 5850 5849 5848 5848 5847 5847 5846 5846 5845 5845 5845 5844 5844 5844 5843 5843 5842 5841 5840 5839 5839 5838 5837 5837 5837 5836 5835 5833 5832 5831 5831 5832 5832 5833 5833 5833 5833
5847 5847 5846 5846 5846 5846 5845 5845 5844 5844 5843 5842 5842 5842 5842 5841 5841 5840 5840 5840 5840 5839 5838 5837 5836 5835 5834 5834 5833 5832 5832 5831 5830 5828 5827 5825 5825 5826 5827 5828 5828 5828 5828
5843 5842 5842 5842 5841 5841 5841 5841 5840 5840 5839 5839 5838 5838 5837 5837 5836 5836 5836 5835 5835 5835 5834 5833 5832 5831 5830 5829 5828 5828 5827 5826 5825 5824 5823 5822 5821 5821 5822 5822 5822 5822 5823
5837 5837 5837 5837 5837 5836 5836 5836 5835 5835 5834 5834 5834 5833 5833 5832 5832 5831 5831 5830 5830 5829 5829 5828 5827 5827 5826 5825 5824 5823 5822 5821 5821 5820 5818 5818 5817 5817 5816 5816 5816 5816 5816
5831 5831 5831 5831 5831 5831 5830 5830 5829 5829 5829 5829 5828 5828 5827 5827 5827 5826 5826 5825 5824 5824 5823 5823 5822 5822 5821 5820 5819 5818 5818 5817 5816 5815 5814 5813 5812 5811 5810 5810 5810 5809 5809
5824 5824 5824 5824 5824 5824 5824 5823 5823 5823 5823 5823 5822 5822 5821 5821 5820 5820 5819 5819 5818 5818 5817 5817 5816 5816 5815 5815 5814 5813 5812 5811 5810 5809 5808 5807 5806 5805 5805 5804 5803 5802 5802
5817 5817 5817 5817 5817 5817 5817 5817 5816 5816 5817 5817 5816 5815 5815 5814 5814 5813 5812 5812 5811 5811 5811 5810 5810 5810 5809 5809 5808 5807 5806 5805 5804 5803 5802 5801 5800 5799 5798 5797 5796 5796 5795
5809 5809 5810 5810 5809 5810 5810 5810 5809 5809 5809 5810 5809 5809 5808 5808 5807 5806 5805 5805 5804 5804 5804 5804 5803 5803 5803 5802 5801 5800 5800 5799 5798 5796 5795 5794 5793 5792 5790 5789 5789 5788 5787
5801 5801 5802 5802 5802 5802 5802 5803 5802 5802 5802 5802 5802 5801 5801 5801 5800 5799 5798 5798 5797 5797 5797 5796 5796 5796 5795 5795 5794 5793 5792 5792 5791 5790 5788 5787 5786 5784 5783 5782 5781 5780 5779
5794 5794 5794 5794 5793 5793 5794 5794 5794 5795 5795 5794 5794 5794 5793 5793 5792 5791 5791 5790 5790 5789 5789 5788 5788 5788 5788 5787 5787 5786 5785 5784 5783 5782 5781 5780 5778 5777 5776 5774 5773 5772 5771
5786 5786 5785 5785 5785 5785 5785 5786 5786 5786 5786 5786 5786 5786 5786 5785 5784 5784 5783 5782 5782 5781 5781 5781 5781 5781 5780 5780 5779 5779 5778 5777 5776 5775 5774 5773 5771 5770 5768 5767 5765 5764 5763
5777 5777 5776 5776 5776 5776 5777 5777 5778 5778 5778 5779 5778 5778 5777 5777 5777 5776 5775 5775 5774 5774 5773 5773 5773 5773 5772 5772 5771 5771 5770 5770 5769 5768 5766 5765 5763 5762 5760 5759 5757 5756 5755
5769 5769 5768 5768 5768 5768 5769 5769 5769 5770 5770 5770 5770 5770 5769 5769 5768 5767 5767 5767 5766 5766 5766 5766 5765 5765 5765 5764 5764 5763 5762 5762 5761 5760 5758 5757 5755 5754 5753 5751 5749 5748 5747